• Join FlightAware (Why Join?)
  • Login
  • US Flag 
02:04AM EDT


 

Airport Tracker/Info


-or-


 

Live Flight TrackerFlight Track Log ✈ ASH3751 ✈ 19-Jun-2013 ✈ KORD - KALB

Flight Track Log - Related Links

Times and Time Zones

All times are in EDT time to prevent confusion due to time zone crossing. See the ASH3751 flight status page for this flight to view local times or setup timezone preferences in your user account.

Time Position Orientation Groundspeed Altitude Reporting Facility
EDT Latitude Longitude Course Direction KTS MPH feet Rate Location/Type
11:10PM 41.9500 -87.9000 66° East 165 190 1,600  Level Chicago TRACON
11:11PM 41.9333 -87.8500 114° Southeast 209 241 3,600 1,920 Climbing Chicago TRACON
11:12PM 41.9408 -87.7914 80° East 222 255 4,900 960 Climbing Chicago Center
11:13PM 42.1301 -87.4519 63° Northeast  Level FlightAware Approximate
11:13PM 41.9944 -87.7231 43° Northeast 263 303 5,300  Level Chicago Center
11:14PM 42.1842 -87.2975 66° East  Level FlightAware Approximate
11:14PM 42.0533 -87.6531 41° Northeast 281 323 7,800  Level Chicago Center
11:15PM 42.2361 -87.1416 66° East  Level FlightAware Approximate
11:15PM 42.1150 -87.5772 42° Northeast 297 342 10,600  Level Chicago Center
11:16PM 42.1792 -87.5028 41° Northeast 305 351 13,100 1,800 Climbing Chicago Center
11:17PM 42.1958 -87.3764 80° East 340 391 14,300 1,440 Climbing Chicago Center
11:18PM 42.2100 -87.2381 82° East 367 422 16,100 1,680 Climbing Chicago Center
11:19PM 42.2228 -87.0922 83° East 389 448 17,800 1,860 Climbing Chicago Center
11:20PM 42.2406 -86.9131 82° East 403 464 19,900 1,800 Climbing Chicago Center
11:21PM 42.2553 -86.7608 83° East 411 473 21,500 1,440 Climbing Chicago Center
11:22PM 42.2689 -86.6103 83° East 420 483 22,900 720 Climbing Chicago Center
11:23PM 42.2836 -86.4447 83° East 440 506 23,000 780 Climbing Chicago Center
11:24PM 42.2989 -86.2797 83° East 465 535 24,600 1,680 Climbing Chicago Center
11:25PM 42.3133 -86.1128 83° East 457 526 26,500 1,560 Climbing Chicago Center
11:26PM 42.3125 -85.9125 90° East 450 518 27,800 1,080 Climbing Chicago Center
11:27PM 42.3108 -85.7389 91° East 461 531 28,800 1,260 Climbing Chicago Center
11:28PM 42.3086 -85.5683 91° East 460 529 30,400 1,020 Climbing Chicago Center
11:29PM 42.3061 -85.3981 91° East 458 527 31,000 240 Climbing Chicago Center
11:30PM 42.3033 -85.2208 91° East 470 541 31,000  Level Chicago Center
11:31PM 42.3000 -85.0383 91° East 483 556 31,000  Level Chicago Center
11:32PM 42.2958 -84.8547 92° East 489 563 31,000  Level Chicago Center
11:33PM 42.2917 -84.6717 92° East 490 564 31,000  Level Chicago Center
11:34PM 42.2872 -84.4872 92° East 492 566 31,000  Level Chicago Center
11:35PM 42.3100 -84.3064 80° East 490 564 31,000  Level Chicago Center
11:36PM 42.3408 -84.0911 79° East 488 562 31,000  Level Chicago Center
11:37PM 42.3644 -83.8994 80° East 482 555 31,000  Level Cleveland Center
11:38PM 42.3853 -83.7514 79° East 487 560 31,000  Level Cleveland Center
11:39PM 42.4078 -83.5361 82° East 487 560 31,000  Level Cleveland Center
11:40PM 42.4164 -83.3508 86° East 487 560 31,000  Level Cleveland Center
11:41PM 42.4225 -83.1767 87° East 487 560 31,000  Level Cleveland Center
11:42PM 42.4286 -82.9939 87° East 493 567 31,000  Level Cleveland Center
11:43PM 42.4344 -82.8056 88° East 493 567 31,000  Level Cleveland Center
11:44PM 42.4400 -82.6175 88° East 493 567 31,000  Level Cleveland Center
11:45PM 42.4433 -82.4317 89° East 493 567 31,000  Level Cleveland Center
11:46PM 42.4567 -82.2436 84° East 493 567 31,000  Level Cleveland Center
11:47PM 42.4694 -82.0553 85° East 499 574 31,000  Level Cleveland Center
11:48PM 42.4822 -81.8669 85° East 499 574 31,000  Level Cleveland Center
11:49PM 42.4944 -81.6814 85° East 494 568 31,000  Level Cleveland Center
11:50PM 42.5067 -81.4928 85° East 500 575 31,000  Level Cleveland Center
11:51PM 42.5206 -81.2958 84° East 505 581 31,000  Level Cleveland Center
11:52PM 42.5342 -81.0875 85° East 500 575 31,000  Level Cleveland Center
11:53PM 42.5453 -80.8989 85° East 500 575 31,000  Level Cleveland Center
11:54PM 42.5561 -80.7100 85° East 505 581 31,000  Level Cleveland Center
11:55PM 42.5664 -80.5128 86° East 511 588 31,000  Level Cleveland Center
11:56PM 42.5786 -80.3181 85° East 517 595 31,000  Level Cleveland Center
11:57PM 42.5864 -80.1206 87° East 517 595 31,000  Level Cleveland Center
11:58PM 42.6022 -79.9289 84° East 522 601 31,000  Level Cleveland Center
11:59PM 42.6092 -79.7314 87° East 517 595 31,000  Level Cleveland Center
12:00AM 42.6203 -79.5364 86° East 517 595 31,000  Level Cleveland Center
12:01AM 42.6286 -79.3417 87° East 517 595 31,000  Level Cleveland Center
12:02AM 42.6389 -79.1467 86° East 517 595 31,000  Level Cleveland Center
12:03AM 42.6489 -78.9517 86° East 517 595 31,000  Level Cleveland Center
12:04AM 42.6542 -78.7539 88° East 517 595 31,000  Level Cleveland Center
12:05AM 42.6614 -78.5617 87° East 517 595 31,000  Level Cleveland Center
12:06AM 42.6703 -78.3636 86° East 517 595 31,000  Level Cleveland Center
12:07AM 42.6769 -78.1714 87° East 517 595 31,000  Level Cleveland Center
12:08AM 42.6831 -77.9789 87° East 517 595 31,000 -180 Level Cleveland Center
12:09AM 42.6878 -77.8233 88° East 517 595 30,700 -900 Descending Cleveland Center
12:10AM 42.6972 -77.6167 86° East 517 595 29,200 -600 Descending Cleveland Center
12:13AM 42.7053 -77.1961 88° East 504 580 29,000 -120 Descending Boston Center
12:14AM 42.7111 -77.0044 88° East 498 573 29,000  Level Boston Center
12:15AM 42.7164 -76.8125 88° East 498 573 29,000  Level Boston Center
12:16AM 42.7217 -76.6233 88° East 498 573 29,000  Level Boston Center
12:17AM 42.7242 -76.4342 89° East 498 573 29,000  Level Boston Center
12:18AM 42.7294 -76.2789 87° East 498 573 29,000 -960 Level Boston Center
12:19AM 42.7342 -76.0756 88° East 492 566 27,100 -1,860 Descending Boston Center
12:20AM 42.7356 -75.8947 89° East 486 559 25,300 -1,560 Descending Boston Center
12:21AM 42.7350 -75.7053 90° East 481 554 24,000 -1,500 Descending Boston Center
12:22AM 42.7400 -75.5217 88° East 487 560 22,400 -1,680 Descending Boston Center
12:23AM 42.7406 -75.3436 90° East 481 554 20,700 -1,740 Descending Boston Center
12:24AM 42.7428 -75.1739 89° East 462 532 19,000 -1,560 Descending Boston Center
12:25AM 42.7467 -75.0017 88° East 457 526 17,600 -1,680 Descending Boston Center
12:25AM 42.7447 -74.9028 92° East 448 516 16,500 -1,740 Descending Boston Center
12:26AM 42.7461 -74.8378 88° East 445 512 15,900 -1,740 Descending Boston Center
12:26AM 42.7481 -74.7389 88° East 428 493 14,800 -1,800 Descending Boston Center
12:27AM 42.7414 -74.6622 97° East 429 494 14,100 -1,680 Descending Boston Center
12:27AM 42.7344 -74.5911 98° East 398 458 13,100 -1,980 Descending Boston Center
12:28AM 42.7203 -74.4439 97° East 391 450 11,100 -1,560 Descending Boston Center
12:29AM 42.7058 -74.3161 99° East 323 372 10,000 -1,380 Descending Boston Center
12:30AM 42.6953 -74.1944 97° East 288 331 8,300 -1,800 Descending Boston Center
12:31AM 42.6844 -74.0867 98° East 295 339 6,400 -1,920 Descending Boston Center
12:32AM 42.6733 -73.9847 98° East 263 303 4,500 -1,740 Descending Boston Center
12:33AM 42.6642 -73.8886 97° East 253 291 3,000 -1,140 Descending Boston Center
12:34AM 42.6650 -73.8153 89° East 185 213 2,300 -960 Descending Boston Center
12:35AM 42.7028 -73.8075 North 118 136 1,100 -1,200 Descending Boston Center